Regional Weather Roundup
Issued by NWS

Home | Current Version | Previous Version | Graphics & Text | Print | Product List | Glossary On
Versions: 1 2 3 4 5 6 7 8 9 10 11 12 13 14 15 16 17 18 19 20 21 22 23 24 25 26 27 28 29 30 31 32 33 34 35 36 37 38 39 40 41 42 43 44 45 46 47 48 49 50
000
ASUS45 KCYS 021810
RWRWY

WYOMING REGIONAL WEATHER ROUNDUP
NATIONAL WEATHER SERVICE CHEYENNE WY
1200 PM MDT MON MAY 02 2016

NOTE:  "FAIR" INDICATES FEW OR NO CLOUDS BELOW 12,000 FEET
WITH NO SIGNIFICANT WEATHER AND/OR OBSTRUCTIONS TO VISIBILITY.

WYZ001-021900-
YELLOWSTONE NATIONAL PARK

CITY           SKY/WX    TMP DP  RH WIND       PRES   REMARKS
LK YELLOWSTONE   N/A     41  16  36 E5        30.31S
6HR MIN TEMP:  19; 6HR MAX TEMP:  41;

W YELLOWSTONE  NOT AVBL

$$
WYZ002>013-054>058-071-098>099-021900-
NORTHERN WYOMING

CITY           SKY/WX    TMP DP  RH WIND       PRES   REMARKS
JACKSON        SUNNY     52  19  28 CALM      30.27
CODY           FAIR      55  25  30 SE5       30.21S
GREYBULL       FAIR      58  25  28 VRB3      30.19F
6HR MIN TEMP:  33; 6HR MAX TEMP:  59;

WORLAND        FAIR      58  29  33 N6        30.20F
6HR MIN TEMP:  36; 6HR MAX TEMP:  58;

SHERIDAN       FAIR      61  31  32 NW13      30.17F
6HR MIN TEMP:  32; 6HR MAX TEMP:  62;

BUFFALO          N/A    N/A N/A N/A MISG      30.19S
GILLETTE       FAIR      58  32  37 N17G24    30.15F
6HR MIN TEMP:  35; 6HR MAX TEMP:  58;

HULETT         FAIR      57  32  38 N12G20    30.15F
NEWCASTLE      FAIR      57  27  30 N18G25    30.14F

$$
WYZ014>020-022>026-101>103-021900-
CENTRAL WYOMING

CITY           SKY/WX    TMP DP  RH WIND       PRES   REMARKS
BIG PINEY      FAIR      50  14  23 SW10      30.29F
6HR MIN TEMP:  15; 6HR MAX TEMP:  50;

PINEDALE       FAIR      46  10  23 SW6       30.29S
DUBOIS         FAIR      54   3  13 CALM      30.23S
LANDER         FAIR      51  26  37 VRB5      30.22F
6HR MIN TEMP:  31; 6HR MAX TEMP:  51;

RIVERTON       FAIR      51  27  39 CALM      30.24F
6HR MIN TEMP:  31; 6HR MAX TEMP:  51;

CASPER         FAIR      54  29  38 W16G25    30.22F
6HR MIN TEMP:  28; 6HR MAX TEMP:  54;

DOUGLAS        FAIR      56  29  35 W21       30.18F
6HR MIN TEMP:  27; 6HR MAX TEMP:  57;


$$
WYZ021-027>030-104>119-021900-
SOUTHERN WYOMING

CITY           SKY/WX    TMP DP  RH WIND       PRES   REMARKS
EVANSTON       FAIR      48  17  29 NE3       30.29S
6HR MIN TEMP:  28; 6HR MAX TEMP:  48;

KEMMERER         N/A     45  19  36 CALM      30.30F
FORT BRIDGER   CLEAR     45  23  42 N3        30.33S
ROCK SPRINGS   FAIR     N/A N/A N/A MISG      30.29F
DIXON          FAIR      49  24  37 CALM      30.29F
RAWLINS        FAIR      49  18  29 MISG      30.26S
6HR MIN TEMP:  20; 6HR MAX TEMP:  49;

SARATOGA       FAIR      48  27  43 N9G18     30.26S
LARAMIE        FAIR      33  16  49 W5        30.24S WCI  29
6HR MIN TEMP:  13; 6HR MAX TEMP:  33;

CHEYENNE       FAIR      50  19  29 NW6       30.20F
6HR MIN TEMP:  25; 6HR MAX TEMP:  51;

TORRINGTON     FAIR      57  28  33 W10       30.16F
6HR MIN TEMP:  29; 6HR MAX TEMP:  57;

PINE BLUFFS    FAIR      50  25  37 CALM      30.21S

$$



USA.gov is the U.S. government's official web portal to all federal, state and local government web resources and services.